Location: Ladrillo (historical)
(32.8195°N, 117.2231°W)
Time: 03:29:00
(UTC+00:00)

Cosmos 1428 Rocket - Pass Details

Date: 29 October 2020
Orbit: 947 x 989 km, 82.9° (Epoch: 26 November)

Event Time Altitude Azimuth Distance (km) Brightness Sun altitude
Rises 12:43:23 0° 189° (S) 3,668 7.5 -17.6°
Reaches altitude 10° 12:45:54 10° 191° (SSW) 2,718 6.8 -17.1°
Maximum altitude 12:52:07 74° 276° (W) 1,010 4.4 -15.8°
Drops below altitude 10° 12:58:19 10° 2° (N) 2,704 6.8 -14.5°
Sets 13:00:49 0° 4° (N) 3,648 7.5 -14.0°
